FLOCK 4H-18 (66721 NORAD) Tracking and Keplerian Element Data

This shows tracking and keplerian element data for the satellite.

Feedback or suggestion? Click here.




ElementValue
Catalog66721
NameFLOCK 4H-18
Epoch Orbit324
Epoch Day354.12823458
Epoch Year2025
RAAN65.745
Inclination97.4403
Eccentricity0.0002428
Argument of Perigee309.7615
Mean Anonmoly50.3404
Mean Motion15.17116605
Decay Rate7.846E-05
L11 66721U 25276BH 25354.12823458 .00007846 00000+0 39893-3 0 9995
L22 66721 97.4403 65.7450 0002428 309.7615 50.3404 15.17116605 3243



Live tracking and technical data element details for FLOCK 4H-18 (NORAD 66721). FLOCK 4H-18 can be tracked NOW for your location showing map with azimuth and elevation plus other details from your city location.







IsCatalogInMostPopularTable: catalog: 66721, numindb: 26
Update: records affected: 1



GetName: 66721 FLOCK 4H-18

Hit Count: updated at: Tue, 21 Apr 2026 21:18:12 GMT